Previsão horária em Sidnei

Hoje, 30 Setembro, Quarta-feira

Tempo Temperatura Precipitação Vento Pressão Humidade
00:00 +13°C° 0 mm 2 m/s 766 mmHg 75%
01:00 +12°C° 0 mm 2 m/s 765 mmHg 77%
02:00 +12°C° 0 mm 2 m/s 765 mmHg 78%
03:00 +12°C° 0 mm 2 m/s 764 mmHg 80%
04:00 +12°C° 0 mm 2 m/s 763 mmHg 82%
05:00 +12°C° 0 mm 2 m/s 763 mmHg 79%
06:00 +13°C° 0 mm 2 m/s 763 mmHg 76%
07:00 +14°C° 0 mm 2 m/s 763 mmHg 73%
08:00 +16°C° 0 mm 3 m/s 763 mmHg 65%
09:00 +18°C° 0 mm 4 m/s 763 mmHg 56%
10:00 +20°C° 0 mm 5 m/s 763 mmHg 48%
11:00 +21°C° 0 mm 5 m/s 762 mmHg 45%
12:00 +23°C° 0 mm 6 m/s 762 mmHg 43%
13:00 +24°C° 0 mm 6 m/s 761 mmHg 40%
14:00 +21°C° 0.4 mm 6 m/s 761 mmHg 53%
15:00 +19°C° 0.4 mm 6 m/s 760 mmHg 67%
16:00 +15°C° 0.4 mm 5 m/s 760 mmHg 81%
17:00 +16°C° 0 mm 5 m/s 760 mmHg 79%
18:00 +16°C° 0 mm 5 m/s 760 mmHg 77%
19:00 +16°C° 0 mm 5 m/s 760 mmHg 75%
20:00 +16°C° 0 mm 5 m/s 760 mmHg 75%
21:00 +16°C° 0 mm 6 m/s 760 mmHg 75%
22:00 +15°C° 0 mm 6 m/s 760 mmHg 75%
23:00 +15°C° 0 mm 6 m/s 759 mmHg 76%

Amanhã, 1 Outubro, Quinta-feira

Tempo Temperatura Precipitação Vento Pressão Humidade
00:00 +15°C° 0 mm 6 m/s 759 mmHg 77%
01:00 +15°C° 0 mm 6 m/s 758 mmHg 78%
02:00 +15°C° 0.3 mm 6 m/s 758 mmHg 79%
03:00 +15°C° 0.3 mm 5 m/s 758 mmHg 80%
04:00 +15°C° 0.3 mm 5 m/s 758 mmHg 82%
05:00 +15°C° 0 mm 5 m/s 759 mmHg 80%
06:00 +17°C° 0 mm 4 m/s 760 mmHg 78%
07:00 +17°C° 0 mm 4 m/s 760 mmHg 77%
08:00 +20°C° 0 mm 3 m/s 760 mmHg 64%
09:00 +22°C° 0 mm 3 m/s 760 mmHg 52%
10:00 +25°C° 0 mm 2 m/s 761 mmHg 39%
11:00 +27°C° 0 mm 2 m/s 760 mmHg 34%
12:00 +28°C° 0 mm 2 m/s 760 mmHg 28%
13:00 +29°C° 0 mm 2 m/s 760 mmHg 23%
14:00 +29°C° 0 mm 3 m/s 760 mmHg 23%
15:00 +28°C° 0 mm 3 m/s 760 mmHg 24%
16:00 +28°C° 0 mm 3 m/s 760 mmHg 24%
17:00 +25°C° 0 mm 3 m/s 761 mmHg 39%
18:00 +21°C° 0 mm 2 m/s 762 mmHg 53%
19:00 +18°C° 0 mm 2 m/s 763 mmHg 67%
20:00 +18°C° 0 mm 2 m/s 764 mmHg 68%
21:00 +18°C° 0 mm 1 m/s 764 mmHg 68%
22:00 +16°C° 0 mm 1 m/s 765 mmHg 69%
23:00 +16°C° 0 mm 1 m/s 765 mmHg 70%

Depois de amanhã, 2 Outubro, Sexta-feira

Tempo Temperatura Precipitação Vento Pressão Humidade
00:00 +15°C° 0 mm 1 m/s 765 mmHg 71%
01:00 +15°C° 0 mm 1 m/s 765 mmHg 72%
02:00 +14°C° 0 mm 1 m/s 765 mmHg 75%
03:00 +14°C° 0 mm 2 m/s 765 mmHg 77%
04:00 +13°C° 0 mm 2 m/s 766 mmHg 79%
05:00 +14°C° 0 mm 2 m/s 766 mmHg 74%
06:00 +13°C° 0 mm 3 m/s 766 mmHg 68%
07:00 +14°C° 0 mm 3 m/s 767 mmHg 62%
08:00 +18°C° 0 mm 3 m/s 767 mmHg 51%
09:00 +21°C° 0 mm 2 m/s 767 mmHg 39%
10:00 +25°C° 0 mm 2 m/s 767 mmHg 28%
11:00 +27°C° 0 mm 2 m/s 766 mmHg 24%
12:00 +28°C° 0 mm 2 m/s 766 mmHg 21%
13:00 +30°C° 0 mm 3 m/s 766 mmHg 17%
14:00 +30°C° 0 mm 3 m/s 766 mmHg 18%
15:00 +30°C° 0 mm 4 m/s 766 mmHg 20%
16:00 +30°C° 0 mm 4 m/s 766 mmHg 21%
17:00 +27°C° 0 mm 4 m/s 766 mmHg 32%
18:00 +23°C° 0 mm 4 m/s 767 mmHg 44%
19:00 +20°C° 0 mm 4 m/s 767 mmHg 55%
20:00 +20°C° 0 mm 4 m/s 768 mmHg 58%
21:00 +19°C° 0 mm 3 m/s 768 mmHg 60%
22:00 +18°C° 0 mm 3 m/s 768 mmHg 63%
23:00 +18°C° 0 mm 3 m/s 768 mmHg 63%

3 Outubro, Sábado

Tempo Temperatura Precipitação Vento Pressão Humidade
00:00 +17°C° 0 mm 2 m/s 768 mmHg 63%
01:00 +16°C° 0 mm 2 m/s 767 mmHg 64%
02:00 +16°C° 0 mm 2 m/s 767 mmHg 64%
03:00 +16°C° 0 mm 2 m/s 767 mmHg 65%
04:00 +15°C° 0 mm 2 m/s 767 mmHg 65%
05:00 +16°C° 0 mm 2 m/s 768 mmHg 62%
06:00 +17°C° 0 mm 2 m/s 768 mmHg 58%
07:00 +17°C° 0 mm 2 m/s 768 mmHg 55%
08:00 +21°C° 0 mm 2 m/s 768 mmHg 45%
09:00 +25°C° 0 mm 3 m/s 768 mmHg 36%
10:00 +29°C° 0 mm 3 m/s 767 mmHg 27%
11:00 +30°C° 0 mm 4 m/s 767 mmHg 24%
12:00 +33°C° 0 mm 5 m/s 766 mmHg 21%
13:00 +35°C° 0 mm 5 m/s 766 mmHg 18%
14:00 +34°C° 0 mm 6 m/s 765 mmHg 23%
15:00 +33°C° 0 mm 6 m/s 765 mmHg 27%
16:00 +32°C° 0 mm 7 m/s 764 mmHg 31%
17:00 +28°C° 0 mm 6 m/s 765 mmHg 39%
18:00 +26°C° 0 mm 5 m/s 765 mmHg 46%
19:00 +23°C° 0 mm 5 m/s 765 mmHg 53%
20:00 +22°C° 0 mm 4 m/s 766 mmHg 54%
21:00 +21°C° 0 mm 3 m/s 766 mmHg 54%
22:00 +21°C° 0 mm 3 m/s 766 mmHg 55%
23:00 +20°C° 0 mm 2 m/s 766 mmHg 58%

4 Outubro, Domingo

Tempo Temperatura Precipitação Vento Pressão Humidade
00:00 +20°C° 0 mm 2 m/s 765 mmHg 60%
01:00 +19°C° 0 mm 2 m/s 765 mmHg 63%
02:00 +19°C° 0 mm 2 m/s 765 mmHg 66%
03:00 +19°C° 0 mm 2 m/s 765 mmHg 68%
04:00 +18°C° 0 mm 3 m/s 765 mmHg 71%
05:00 +19°C° 0 mm 3 m/s 765 mmHg 68%
06:00 +20°C° 0 mm 3 m/s 766 mmHg 66%
07:00 +20°C° 0 mm 3 m/s 766 mmHg 64%
08:00 +24°C° 0 mm 3 m/s 765 mmHg 54%
09:00 +27°C° 0 mm 4 m/s 765 mmHg 43%
10:00 +32°C° 0 mm 4 m/s 765 mmHg 33%
11:00 +33°C° 0 mm 5 m/s 764 mmHg 29%
12:00 +34°C° 0 mm 5 m/s 764 mmHg 25%
13:00 +35°C° 0 mm 6 m/s 763 mmHg 20%
14:00 +35°C° 0 mm 6 m/s 763 mmHg 21%
15:00 +35°C° 0 mm 7 m/s 762 mmHg 21%
16:00 +35°C° 0 mm 8 m/s 762 mmHg 21%
17:00 +32°C° 0 mm 7 m/s 762 mmHg 28%
18:00 +28°C° 0 mm 6 m/s 762 mmHg 35%
19:00 +26°C° 0 mm 5 m/s 762 mmHg 42%
20:00 +25°C° 0 mm 5 m/s 763 mmHg 44%
21:00 +23°C° 0 mm 4 m/s 763 mmHg 47%
22:00 +23°C° 0 mm 4 m/s 763 mmHg 49%
23:00 +22°C° 0 mm 4 m/s 763 mmHg 53%

5 Outubro, Segunda-feira

Tempo Temperatura Precipitação Vento Pressão Humidade
00:00 +21°C° 0 mm 3 m/s 762 mmHg 57%
01:00 +20°C° 0 mm 3 m/s 762 mmHg 60%
02:00 +20°C° 0 mm 3 m/s 762 mmHg 59%
03:00 +19°C° 0 mm 4 m/s 762 mmHg 59%
04:00 +19°C° 0 mm 4 m/s 761 mmHg 58%
05:00 +20°C° 0 mm 4 m/s 762 mmHg 55%
06:00 +21°C° 0 mm 4 m/s 763 mmHg 52%
07:00 +21°C° 0 mm 4 m/s 763 mmHg 48%
08:00 +25°C° 0 mm 4 m/s 763 mmHg 41%
09:00 +28°C° 0 mm 3 m/s 763 mmHg 34%
10:00 +31°C° 0 mm 3 m/s 763 mmHg 27%
11:00 +33°C° 0 mm 3 m/s 763 mmHg 26%
12:00 +34°C° 0 mm 3 m/s 763 mmHg 25%
13:00 +35°C° 0 mm 4 m/s 763 mmHg 23%
14:00 +29°C° 0 mm 6 m/s 763 mmHg 41%
15:00 +23°C° 0 mm 8 m/s 764 mmHg 58%
16:00 +18°C° 0 mm 10 m/s 764 mmHg 75%
17:00 +17°C° 0.1 mm 9 m/s 765 mmHg 75%
18:00 +17°C° 0.1 mm 8 m/s 766 mmHg 76%
19:00 +16°C° 0.1 mm 8 m/s 767 mmHg 76%
20:00 +16°C° 0 mm 7 m/s 767 mmHg 75%
21:00 +16°C° 0 mm 6 m/s 768 mmHg 75%
22:00 +16°C° 0 mm 5 m/s 768 mmHg 74%
23:00 +16°C° 0 mm 5 m/s 768 mmHg 75%
Mostrar mais